Tracking 21045 objects as of 4-Aug-2020
HD Live streaming from Space Station
objects crossing your sky now

COSMOS 2292

Track COSMOS 2292 now!
10-day predictions
COSMOS 2292 is classified as:


NORAD ID: 23278
Int'l Code: 1994-061A
Perigee: 402.5 km
Apogee: 1,706.7 km
Inclination: 83.0 °
Period: 106.1 minutes
Semi major axis: 7425 km
RCS: 2.958 m2 (large)
Launch date: September 27, 1994
Source: Commonwealth of Independent States (former USSR) (CIS)
Launch site: PLESETSK MISSILE AND SPACE COMPLEX (PKMTR)
aabbcc
Your satellite tracking list
Your tracking list is empty




NASA's NSSDC Master Catalog

Two Line Element Set (TLE):
1 23278U 94061A   20216.89928171 +.00000464 +00000-0 +39356-4 0  9992
2 23278 082.9772 041.4189 0878179 334.6965 021.3482 13.56768997266221
Source of the keplerian elements: AFSPC